| time (UTC) | temp C | wind direction | speed KPH | gust KPH | rain 1hr cm | rain 24hr cm | rain mn cm | humidity % | barometer mb |
| 20260506103052 | 23 | 207 | 0.0 | 1.6 | 0.00 | 0.00 | 0.00 | 3 | 1007.6 |
| 20260506101548 | 23 | 218 | 0.0 | 6.4 | 0.00 | 0.00 | 0.00 | 3 | 1007.4 |
| 20260506100045 | 23 | 219 | 0.0 | 9.7 | 0.00 | 0.00 | 0.00 | 2 | 1007.3 |
| 20260506094548 | 23 | 179 | 0.0 | 11.3 | 0.00 | 0.00 | 0.00 | 2 | 1007.3 |
| 20260506093046 | 23 | 208 | 0.0 | 9.7 | 0.00 | 0.00 | 0.00 | 3 | 1007.0 |
| 20260506091536 | 23 | 223 | 1.6 | 11.3 | 0.00 | 0.00 | 0.00 | 4 | 1006.9 |
| 20260506090033 | 23 | 182 | 1.6 | 12.9 | 0.00 | 0.00 | 0.00 | 5 | 1006.9 |
| 20260506084533 | 23 | 200 | 0.0 | 6.4 | 0.00 | 0.00 | 0.00 | 7 | 1006.8 |
| 20260506083031 | 23 | 215 | 3.2 | 9.7 | 0.00 | 0.00 | 0.00 | 8 | 1006.8 |
| 20260506081529 | 24 | 182 | 3.2 | 12.9 | 0.00 | 0.00 | 0.00 | 10 | 1006.9 |
| 20260506073024 | 24 | 203 | 3.2 | 9.7 | 0.00 | 0.00 | 0.00 | 14 | 1007.2 |
| 20260506071525 | 24 | 202 | 1.6 | 11.3 | 0.00 | 0.00 | 0.00 | 15 | 1007.5 |
| 20260506061529 | 24 | 204 | 1.6 | 12.9 | 0.00 | 0.00 | 0.00 | 19 | 1007.6 |
| 20260506044517 | 25 | 173 | 3.2 | 11.3 | 0.00 | 0.00 | 0.00 | 24 | 1007.5 |
| 20260506043014 | 25 | 199 | 3.2 | 11.3 | 0.00 | 0.00 | 0.00 | 26 | 1007.5 |
| 20260506041508 | 25 | 173 | 3.2 | 11.3 | 0.00 | 0.00 | 0.00 | 28 | 1007.3 |
| 20260506040008 | 25 | 197 | 1.6 | 14.5 | 0.00 | 0.00 | 0.00 | 30 | 1007.1 |
| 20260506034507 | 25 | 182 | 1.6 | 16.1 | 0.00 | 0.00 | 0.00 | 33 | 1007.0 |
| 20260506033007 | 25 | 172 | 4.8 | 14.5 | 0.00 | 0.00 | 0.00 | 36 | 1006.7 |
| 20260506031513 | 25 | 180 | 3.2 | 12.9 | 0.00 | 0.00 | 0.00 | 37 | 1006.6 |
| 20260506030007 | 25 | 209 | 3.2 | 14.5 | 0.00 | 0.00 | 0.00 | 42 | 1006.4 |
| 20260506024505 | 26 | 169 | 4.8 | 24.1 | 0.00 | 0.00 | 0.00 | 47 | 1006.1 |
| 20260506023005 | 26 | 190 | 8.0 | 16.1 | 0.00 | 0.00 | 0.00 | 53 | 1005.9 |
| 20260506021503 | 26 | 163 | 4.8 | 16.1 | 0.00 | 0.00 | 0.00 | 58 | 1005.4 |
| 20260506020005 | 26 | 179 | 6.4 | 11.3 | 0.00 | 0.00 | 0.00 | 60 | 1005.2 |
| 20260506014503 | 27 | 192 | 6.4 | 12.9 | 0.00 | 0.00 | 0.00 | 62 | 1005.1 |
| 20260506013003 | 27 | 194 | 4.8 | 12.9 | 0.00 | 0.00 | 0.00 | 64 | 1005.0 |
| 20260506011503 | 27 | 204 | 1.6 | 8.0 | 0.00 | 0.00 | 0.00 | 64 | 1005.2 |
| 20260506004628 | 27 | 177 | 1.6 | 6.4 | 0.00 | 0.00 | 0.00 | 65 | 1005.1 |
| 20260506003059 | 27 | 173 | 1.6 | 11.3 | 0.00 | 0.00 | 0.00 | 66 | 1004.9 |
| 20260506001601 | 28 | 222 | 3.2 | 11.3 | 0.00 | 0.00 | 0.00 | 66 | 1004.9 |
| 20260506000058 | 28 | 171 | 1.6 | 8.0 | 0.00 | 0.00 | 0.00 | 66 | 1004.7 |
| 20260505234615 | 28 | 197 | 1.6 | 11.3 | 0.00 | 0.00 | 0.00 | 66 | 1004.7 |
| 20260505233057 | 28 | 200 | 0.0 | 11.3 | 0.00 | 0.00 | 0.00 | 66 | 1004.6 |
| 20260505231558 | 28 | 207 | 0.0 | 16.1 | 0.00 | 0.00 | 0.00 | 66 | 1004.6 |
| 20260505230056 | 28 | 201 | 0.0 | 12.9 | 0.00 | 0.00 | 0.00 | 66 | 1004.5 |
| 20260505224555 | 28 | 215 | 4.8 | 14.5 | 0.00 | 0.00 | 0.00 | 66 | 1004.5 |
| 20260505223102 | 28 | 211 | 4.8 | 12.9 | 0.00 | 0.00 | 0.00 | 66 | 1004.4 |
| 20260505221607 | 28 | 223 | 4.8 | 11.3 | 0.00 | 0.00 | 0.00 | 66 | 1004.3 |
| 20260505220121 | 28 | 167 | 4.8 | 16.1 | 0.00 | 0.00 | 0.00 | 66 | 1004.6 |
| 20260505214608 | 28 | 196 | 1.6 | 8.0 | 0.00 | 0.00 | 0.00 | 66 | 1004.8 |
| 20260505213049 | 28 | 221 | 4.8 | 17.7 | 0.00 | 0.00 | 0.00 | 66 | 1005.0 |
| 20260505211554 | 28 | 217 | 8.0 | 17.7 | 0.00 | 0.00 | 0.00 | 66 | 1004.9 |
| 20260505210044 | 28 | 223 | 3.2 | 12.9 | 0.00 | 0.00 | 0.00 | 66 | 1005.3 |
| 20260505204541 | 27 | 199 | 4.8 | 19.3 | 0.00 | 0.00 | 0.00 | 66 | 1005.5 |
| 20260505203038 | 27 | 186 | 4.8 | 12.9 | 0.00 | 0.00 | 0.00 | 65 | 1005.9 |
| 20260505201536 | 27 | 203 | 1.6 | 16.1 | 0.00 | 0.00 | 0.00 | 65 | 1006.2 |
| 20260505200037 | 27 | 160 | 6.4 | 19.3 | 0.00 | 0.00 | 0.00 | 65 | 1006.3 |
| 20260505194533 | 27 | 192 | 3.2 | 17.7 | 0.00 | 0.00 | 0.00 | 65 | 1006.5 |
| 20260505193033 | 27 | 194 | 4.8 | 16.1 | 0.00 | 0.00 | 0.00 | 64 | 1006.5 |
| 20260505191532 | 27 | 220 | 3.2 | 14.5 | 0.00 | 0.00 | 0.00 | 64 | 1006.8 |
| 20260505190044 | 27 | 187 | 4.8 | 14.5 | 0.00 | 0.00 | 0.00 | 62 | 1006.8 |
| 20260505184529 | 26 | 198 | 4.8 | 16.1 | 0.00 | 0.00 | 0.00 | 60 | 1007.1 |
| 20260505183040 | 26 | 213 | 1.6 | 9.7 | 0.00 | 0.00 | 0.00 | 56 | 1007.3 |
| 20260505181522 | 25 | 190 | 4.8 | 14.5 | 0.00 | 0.00 | 0.00 | 51 | 1007.4 |
| 20260505180017 | 25 | 213 | 1.6 | 8.0 | 0.00 | 0.00 | 0.00 | 48 | 1007.6 |
| 20260505174513 | 24 | 187 | 4.8 | 11.3 | 0.00 | 0.00 | 0.00 | 43 | 1007.8 |
| 20260505173019 | 24 | 221 | 0.0 | 8.0 | 0.00 | 0.00 | 0.00 | 38 | 1008.1 |
| 20260505171508 | 23 | 207 | 0.0 | 9.7 | 0.00 | 0.00 | 0.00 | 37 | 1008.2 |
| 20260505170010 | 23 | 213 | 0.0 | 6.4 | 0.00 | 0.00 | 0.00 | 36 | 1008.2 |
| 20260505164505 | 23 | 182 | 1.6 | 9.7 | 0.00 | 0.00 | 0.00 | 31 | 1008.1 |
| 20260505163003 | 23 | 202 | 1.6 | 9.7 | 0.00 | 0.00 | 0.00 | 25 | 1008.1 |
| 20260505161601 | 22 | 216 | 0.0 | 8.0 | 0.00 | 0.00 | 0.00 | 22 | 1008.2 |
| 20260505160109 | 22 | 215 | 1.6 | 9.7 | 0.00 | 0.00 | 0.00 | 19 | 1008.2 |
| 20260505153055 | 22 | 220 | 3.2 | 11.3 | 0.00 | 0.00 | 0.00 | 12 | 1008.3 |
| 20260505151553 | 21 | 216 | 3.2 | 8.0 | 0.00 | 0.00 | 0.00 | 9 | 1008.1 |
| 20260505124521 | -17 | 0.0 | 0.0 | 0.00 | 0.00 | 0.00 | 1006.9 | ||
| 20260505123017 | -17 | 0.0 | 0.0 | 0.00 | 0.00 | 0.00 | 1006.8 | ||
| 20260505121513 | -17 | 0.0 | 0.0 | 0.00 | 0.00 | 0.00 | 1006.6 | ||
| 20260505120009 | -17 | 0.0 | 0.0 | 0.00 | 0.00 | 0.00 | 1006.7 | ||
| 20260505114503 | -17 | 0.0 | 0.0 | 0.00 | 0.00 | 0.00 | 1006.5 | ||
| 20260505113002 | 21 | 205 | 1.6 | 16.1 | 0.00 | 0.00 | 0.00 | 14 | 1006.4 |
| 20260505111601 | 21 | 223 | 0.0 | 8.0 | 0.00 | 0.00 | 0.00 | 14 | 1006.5 |
| 20260505110109 | 21 | 210 | 1.6 | 12.9 | 0.00 | 0.00 | 0.00 | 15 | 1006.6 |